Вернуться в каталог

FENGYUN 1C DEB

АктивенSSO
NORAD 30903·DEBRIS·🇨🇳 China

Запущен May 10, 1999 с Taiyuan Satellite Launch Center

Loading…

Ближайшие Пролёты (ближайшие 24 часа)

TLE

УстаревающийSource: Space-Track

Эпоха: Sep 6, 2026, 22:37 UTC

1 30903U 99025AYR 26249.94267594  .00000151  00000-0  13378-3 0  9991
2 30903  99.3382 145.5434 0096990  83.1876 278.0310 13.97713615724516

Отслеживайте FENGYUN 1C DEB в реальном времени с AllMySat

Download on the App Store